Precipitable_Water
0.58 0.56 0.56 0.54 0.52 0.52 0.52 0.54 0.55 0.55 0.57 0.58 0.58 0.57 0.55 0.53 0.52 0.50 0.49 0.50 0.48 0.50 0.53 0.51 0.52 0.53 0.52 0.52 0.54 0.53 0.49 0.42 0.33 0.31 0.31 0.36 0.45 0.50 0.50 0.54 0.56 0.60 0.60 0.49 0.46 0.44 0.40 0.41 0.37 0.41 0.40 0.41 0.40 0.40 0.45 0.41 0.40 0.37 0.26 0.25 0.23 0.26 0.24 0.28 0.27 0.29 0.32 0.29 0.32 0.33 0.34 0.32 0.30 0.34 0.35 0.37 0.35 0.34 0.34 0.34 0.34 0.36 0.35 0.36 0.36 0.37 0.38 0.39
0.55 0.54 0.53 0.53 0.51 0.50 0.49 0.50 0.51 0.53 0.54 0.55 0.56 0.56 0.55 0.53 0.52 0.50 0.48 0.47 0.47 0.47 0.50 0.50 0.50 0.50 0.52 0.52 0.52 0.54 0.47 0.43 0.31 0.31 0.32 0.44 0.47 0.50 0.52 0.52 0.56 0.57 0.54 0.44 0.43 0.43 0.39 0.36 0.37 0.39 0.36 0.34 0.43 0.36 0.44 0.37 0.41 0.29 0.27 0.25 0.22 0.27 0.27 0.31 0.31 0.32 0.30 0.30 0.32 0.32 0.34 0.33 0.32 0.34 0.35 0.31 0.31 0.32 0.32 0.32 0.33 0.32 0.34 0.36 0.36 0.37 0.37 0.37
0.54 0.53 0.53 0.52 0.51 0.49 0.48 0.48 0.49 0.49 0.51 0.52 0.53 0.54 0.54 0.52 0.51 0.50 0.48 0.47 0.47 0.45 0.46 0.47 0.49 0.49 0.49 0.50 0.50 0.55 0.44 0.39 0.32 0.28 0.36 0.47 0.50 0.50 0.48 0.50 0.53 0.54 0.47 0.41 0.44 0.43 0.41 0.40 0.42 0.40 0.37 0.33 0.36 0.33 0.39 0.36 0.39 0.35 0.27 0.24 0.25 0.29 0.29 0.30 0.31 0.31 0.32 0.32 0.31 0.31 0.33 0.33 0.34 0.34 0.36 0.31 0.30 0.31 0.29 0.29 0.30 0.30 0.30 0.32 0.34 0.35 0.35 0.35
0.54 0.53 0.52 0.51 0.50 0.49 0.48 0.47 0.47 0.47 0.49 0.50 0.50 0.51 0.52 0.51 0.50 0.49 0.48 0.47 0.47 0.45 0.45 0.46 0.45 0.47 0.48 0.48 0.52 0.51 0.42 0.36 0.26 0.31 0.41 0.47 0.50 0.50 0.47 0.48 0.49 0.50 0.48 0.45 0.44 0.42 0.45 0.43 0.43 0.39 0.35 0.31 0.33 0.38 0.33 0.36 0.33 0.34 0.30 0.26 0.27 0.31 0.28 0.30 0.32 0.32 0.33 0.34 0.32 0.32 0.33 0.31 0.33 0.33 0.32 0.31 0.28 0.29 0.29 0.31 0.30 0.29 0.30 0.31 0.33 0.33 0.34 0.33
0.53 0.53 0.52 0.51 0.50 0.49 0.47 0.46 0.45 0.45 0.45 0.46 0.47 0.49 0.49 0.50 0.49 0.48 0.46 0.46 0.47 0.44 0.45 0.45 0.44 0.46 0.48 0.49 0.50 0.47 0.35 0.25 0.24 0.38 0.45 0.47 0.49 0.49 0.47 0.46 0.48 0.48 0.44 0.43 0.41 0.41 0.40 0.40 0.40 0.38 0.35 0.30 0.32 0.32 0.32 0.34 0.36 0.34 0.30 0.31 0.31 0.32 0.28 0.31 0.33 0.35 0.34 0.35 0.33 0.33 0.31 0.31 0.34 0.33 0.31 0.30 0.26 0.26 0.28 0.30 0.32 0.32 0.32 0.32 0.31 0.32 0.33 0.33
0.52 0.52 0.52 0.51 0.50 0.49 0.48 0.46 0.44 0.43 0.42 0.41 0.43 0.44 0.46 0.47 0.47 0.46 0.45 0.44 0.45 0.43 0.45 0.45 0.44 0.44 0.47 0.48 0.43 0.39 0.32 0.16 0.29 0.36 0.46 0.47 0.48 0.47 0.45 0.45 0.48 0.47 0.42 0.38 0.35 0.37 0.37 0.37 0.36 0.32 0.32 0.30 0.28 0.28 0.31 0.34 0.36 0.27 0.31 0.31 0.32 0.33 0.29 0.33 0.34 0.35 0.35 0.34 0.33 0.32 0.33 0.34 0.32 0.31 0.33 0.32 0.30 0.30 0.33 0.33 0.33 0.34 0.34 0.34 0.34 0.34 0.34 0.34
0.52 0.51 0.51 0.50 0.50 0.49 0.48 0.47 0.45 0.44 0.42 0.40 0.40 0.41 0.43 0.44 0.45 0.44 0.43 0.42 0.43 0.42 0.44 0.45 0.43 0.46 0.46 0.48 0.40 0.33 0.27 0.26 0.38 0.43 0.45 0.46 0.46 0.46 0.44 0.43 0.44 0.41 0.39 0.35 0.35 0.33 0.34 0.33 0.32 0.29 0.29 0.29 0.29 0.29 0.31 0.31 0.34 0.29 0.26 0.30 0.30 0.32 0.31 0.34 0.33 0.35 0.35 0.33 0.32 0.34 0.35 0.32 0.32 0.28 0.34 0.32 0.33 0.34 0.35 0.35 0.35 0.35 0.35 0.35 0.33 0.34 0.34 0.34
0.52 0.52 0.51 0.50 0.49 0.49 0.48 0.47 0.46 0.44 0.42 0.41 0.40 0.38 0.40 0.42 0.42 0.42 0.40 0.40 0.43 0.40 0.42 0.44 0.43 0.44 0.47 0.38 0.28 0.26 0.25 0.25 0.37 0.45 0.44 0.43 0.44 0.43 0.43 0.41 0.40 0.39 0.35 0.34 0.33 0.32 0.32 0.29 0.26 0.29 0.27 0.24 0.27 0.27 0.31 0.29 0.29 0.26 0.25 0.29 0.30 0.31 0.32 0.34 0.34 0.34 0.34 0.34 0.34 0.34 0.31 0.31 0.32 0.31 0.33 0.32 0.34 0.35 0.36 0.36 0.36 0.36 0.36 0.35 0.34 0.34 0.34 0.34
0.53 0.53 0.52 0.51 0.50 0.48 0.47 0.47 0.46 0.45 0.43 0.41 0.40 0.38 0.38 0.40 0.40 0.39 0.38 0.38 0.41 0.41 0.41 0.43 0.43 0.45 0.48 0.38 0.29 0.21 0.22 0.38 0.41 0.44 0.42 0.39 0.41 0.41 0.40 0.34 0.40 0.35 0.34 0.34 0.35 0.33 0.32 0.28 0.28 0.28 0.22 0.23 0.29 0.26 0.29 0.26 0.23 0.27 0.26 0.28 0.29 0.29 0.31 0.32 0.32 0.33 0.33 0.33 0.33 0.30 0.30 0.32 0.33 0.35 0.31 0.33 0.34 0.36 0.36 0.36 0.36 0.36 0.36 0.35 0.34 0.35 0.34 0.34
0.55 0.55 0.55 0.54 0.52 0.50 0.48 0.46 0.46 0.45 0.44 0.42 0.40 0.38 0.37 0.38 0.39 0.39 0.36 0.36 0.40 0.40 0.42 0.44 0.42 0.46 0.37 0.29 0.26 0.15 0.28 0.43 0.43 0.43 0.41 0.39 0.40 0.39 0.38 0.38 0.37 0.34 0.32 0.33 0.33 0.33 0.31 0.30 0.28 0.29 0.27 0.26 0.30 0.25 0.26 0.25 0.23 0.28 0.27 0.28 0.26 0.28 0.29 0.31 0.30 0.31 0.32 0.31 0.32 0.28 0.28 0.29 0.33 0.31 0.26 0.33 0.34 0.35 0.35 0.35 0.36 0.36 0.35 0.35 0.35 0.35 0.35 0.34
0.58 0.57 0.57 0.57 0.55 0.53 0.50 0.48 0.46 0.45 0.44 0.42 0.40 0.38 0.37 0.37 0.37 0.37 0.35 0.35 0.38 0.39 0.42 0.42 0.43 0.39 0.30 0.30 0.20 0.15 0.39 0.38 0.42 0.41 0.39 0.38 0.36 0.35 0.36 0.37 0.37 0.33 0.34 0.33 0.32 0.35 0.35 0.34 0.34 0.31 0.28 0.24 0.25 0.24 0.23 0.23 0.28 0.27 0.27 0.27 0.26 0.28 0.29 0.30 0.31 0.31 0.31 0.29 0.31 0.29 0.27 0.29 0.31 0.30 0.28 0.31 0.34 0.35 0.34 0.34 0.34 0.35 0.35 0.35 0.35 0.35 0.35 0.35
0.61 0.59 0.58 0.58 0.57 0.55 0.53 0.51 0.48 0.45 0.44 0.42 0.40 0.38 0.36 0.36 0.37 0.36 0.34 0.35 0.37 0.37 0.42 0.41 0.42 0.39 0.32 0.27 0.21 0.21 0.41 0.40 0.42 0.41 0.38 0.36 0.34 0.37 0.39 0.39 0.37 0.34 0.33 0.30 0.33 0.36 0.37 0.37 0.35 0.27 0.19 0.28 0.21 0.23 0.23 0.27 0.24 0.24 0.25 0.21 0.24 0.27 0.26 0.29 0.28 0.31 0.31 0.29 0.31 0.30 0.26 0.23 0.26 0.25 0.29 0.32 0.34 0.34 0.34 0.34 0.34 0.35 0.35 0.35 0.35 0.35 0.35 0.34
0.62 0.61 0.60 0.58 0.58 0.57 0.55 0.53 0.51 0.48 0.45 0.42 0.40 0.38 0.37 0.36 0.37 0.35 0.34 0.34 0.38 0.39 0.39 0.44 0.39 0.39 0.29 0.19 0.24 0.36 0.42 0.43 0.41 0.40 0.38 0.39 0.39 0.42 0.40 0.38 0.37 0.37 0.36 0.33 0.33 0.37 0.40 0.40 0.35 0.27 0.28 0.24 0.22 0.18 0.24 0.26 0.24 0.24 0.22 0.21 0.20 0.22 0.23 0.27 0.29 0.30 0.30 0.30 0.31 0.30 0.17 0.16 0.22 0.26 0.29 0.31 0.32 0.32 0.32 0.33 0.34 0.35 0.35 0.35 0.35 0.36 0.35 0.35
0.63 0.63 0.61 0.60 0.58 0.57 0.57 0.55 0.52 0.51 0.48 0.44 0.41 0.39 0.36 0.37 0.37 0.35 0.34 0.36 0.41 0.40 0.42 0.43 0.42 0.35 0.28 0.20 0.30 0.39 0.44 0.44 0.42 0.37 0.36 0.38 0.35 0.34 0.36 0.37 0.39 0.39 0.41 0.37 0.40 0.42 0.40 0.42 0.37 0.31 0.32 0.24 0.20 0.29 0.23 0.22 0.23 0.18 0.21 0.21 0.17 0.16 0.16 0.24 0.25 0.27 0.26 0.31 0.31 0.29 0.18 0.16 0.20 0.25 0.29 0.30 0.30 0.30 0.30 0.32 0.34 0.35 0.35 0.35 0.35 0.35 0.35 0.35
0.63 0.63 0.62 0.60 0.58 0.56 0.57 0.55 0.54 0.52 0.50 0.47 0.43 0.40 0.37 0.35 0.37 0.36 0.36 0.36 0.40 0.40 0.39 0.43 0.40 0.31 0.22 0.23 0.36 0.43 0.46 0.44 0.34 0.34 0.39 0.33 0.29 0.31 0.30 0.35 0.34 0.37 0.39 0.40 0.40 0.43 0.43 0.41 0.37 0.29 0.24 0.28 0.26 0.22 0.19 0.19 0.20 0.20 0.16 0.14 0.17 0.15 0.16 0.21 0.24 0.24 0.23 0.28 0.30 0.27 0.19 0.18 0.19 0.23 0.28 0.29 0.29 0.29 0.28 0.29 0.33 0.35 0.35 0.36 0.36 0.35 0.35 0.35
0.64 0.63 0.62 0.61 0.59 0.57 0.56 0.55 0.55 0.54 0.51 0.48 0.45 0.41 0.37 0.36 0.36 0.36 0.39 0.37 0.39 0.41 0.43 0.33 0.34 0.29 0.22 0.18 0.29 0.46 0.38 0.29 0.29 0.40 0.42 0.36 0.31 0.28 0.33 0.33 0.36 0.37 0.38 0.37 0.43 0.43 0.42 0.41 0.32 0.29 0.25 0.23 0.20 0.18 0.16 0.16 0.16 0.18 0.15 0.13 0.13 0.15 0.15 0.15 0.19 0.24 0.25 0.24 0.27 0.25 0.20 0.21 0.19 0.24 0.26 0.28 0.27 0.27 0.26 0.27 0.30 0.33 0.35 0.35 0.36 0.36 0.36 0.35
0.65 0.64 0.62 0.61 0.60 0.58 0.56 0.55 0.55 0.54 0.52 0.48 0.46 0.41 0.37 0.36 0.37 0.38 0.40 0.42 0.41 0.43 0.37 0.27 0.33 0.33 0.17 0.31 0.42 0.29 0.27 0.32 0.44 0.40 0.38 0.39 0.35 0.33 0.33 0.31 0.31 0.33 0.36 0.37 0.40 0.40 0.39 0.34 0.36 0.30 0.28 0.20 0.18 0.17 0.13 0.11 0.12 0.14 0.17 0.13 0.15 0.13 0.14 0.13 0.18 0.21 0.23 0.23 0.20 0.23 0.21 0.20 0.22 0.24 0.26 0.26 0.26 0.26 0.24 0.25 0.29 0.32 0.33 0.35 0.36 0.36 0.36 0.35
0.65 0.64 0.63 0.62 0.60 0.59 0.57 0.56 0.56 0.54 0.52 0.49 0.45 0.41 0.37 0.38 0.40 0.38 0.39 0.40 0.43 0.40 0.38 0.41 0.34 0.26 0.22 0.31 0.22 0.24 0.34 0.34 0.35 0.37 0.39 0.41 0.38 0.35 0.32 0.29 0.31 0.31 0.31 0.30 0.36 0.31 0.35 0.30 0.33 0.24 0.23 0.19 0.17 0.15 0.11 0.09 0.11 0.12 0.13 0.13 0.13 0.15 0.14 0.13 0.13 0.18 0.21 0.22 0.19 0.20 0.20 0.19 0.21 0.23 0.24 0.25 0.26 0.25 0.24 0.25 0.29 0.31 0.32 0.33 0.35 0.36 0.36 0.36
0.65 0.65 0.65 0.63 0.62 0.60 0.59 0.57 0.55 0.54 0.52 0.48 0.44 0.40 0.41 0.40 0.35 0.34 0.30 0.31 0.27 0.22 0.18 0.22 0.21 0.13 0.12 0.21 0.29 0.30 0.32 0.37 0.41 0.37 0.31 0.35 0.37 0.37 0.36 0.36 0.32 0.28 0.24 0.24 0.27 0.29 0.31 0.29 0.29 0.23 0.18 0.16 0.14 0.14 0.13 0.14 0.16 0.14 0.14 0.14 0.13 0.12 0.12 0.12 0.16 0.20 0.21 0.19 0.18 0.17 0.17 0.19 0.20 0.21 0.22 0.23 0.25 0.24 0.23 0.25 0.28 0.30 0.31 0.32 0.33 0.35 0.36 0.36
0.66 0.66 0.65 0.64 0.63 0.62 0.61 0.59 0.57 0.53 0.52 0.44 0.37 0.34 0.31 0.24 0.22 0.21 0.27 0.26 0.24 0.22 0.21 0.21 0.22 0.22 0.23 0.25 0.25 0.35 0.41 0.39 0.28 0.33 0.36 0.38 0.35 0.32 0.31 0.32 0.29 0.29 0.24 0.20 0.25 0.28 0.30 0.22 0.19 0.18 0.19 0.17 0.17 0.17 0.17 0.17 0.16 0.15 0.15 0.14 0.13 0.13 0.13 0.14 0.16 0.20 0.21 0.18 0.17 0.17 0.19 0.19 0.19 0.19 0.20 0.22 0.24 0.22 0.21 0.22 0.27 0.29 0.29 0.30 0.31 0.33 0.35 0.36
0.67 0.66 0.65 0.65 0.64 0.62 0.62 0.60 0.59 0.54 0.51 0.44 0.37 0.29 0.21 0.24 0.19 0.18 0.24 0.24 0.25 0.26 0.23 0.22 0.23 0.20 0.19 0.28 0.32 0.31 0.25 0.26 0.32 0.31 0.35 0.41 0.36 0.31 0.27 0.28 0.25 0.21 0.23 0.25 0.24 0.29 0.27 0.19 0.18 0.20 0.22 0.20 0.19 0.19 0.18 0.16 0.15 0.14 0.14 0.13 0.13 0.13 0.11 0.14 0.16 0.19 0.21 0.18 0.17 0.20 0.19 0.18 0.18 0.19 0.20 0.22 0.23 0.21 0.21 0.23 0.26 0.28 0.29 0.29 0.30 0.32 0.34 0.35
0.70 0.68 0.66 0.65 0.65 0.64 0.62 0.61 0.60 0.55 0.50 0.42 0.34 0.28 0.29 0.31 0.38 0.38 0.31 0.20 0.24 0.26 0.25 0.24 0.27 0.23 0.29 0.29 0.35 0.34 0.30 0.23 0.24 0.29 0.37 0.37 0.32 0.26 0.26 0.25 0.23 0.19 0.25 0.25 0.25 0.22 0.20 0.17 0.18 0.24 0.24 0.24 0.21 0.19 0.17 0.15 0.14 0.14 0.13 0.13 0.13 0.12 0.14 0.16 0.18 0.20 0.21 0.20 0.17 0.19 0.17 0.17 0.17 0.18 0.20 0.20 0.22 0.22 0.24 0.25 0.25 0.27 0.27 0.29 0.32 0.33 0.34 0.34
0.69 0.65 0.66 0.66 0.66 0.65 0.63 0.62 0.59 0.55 0.45 0.36 0.31 0.32 0.32 0.41 0.53 0.52 0.41 0.30 0.23 0.29 0.26 0.25 0.22 0.23 0.24 0.32 0.33 0.37 0.24 0.22 0.20 0.27 0.32 0.35 0.30 0.29 0.28 0.24 0.22 0.22 0.23 0.23 0.18 0.18 0.16 0.18 0.22 0.26 0.24 0.20 0.19 0.19 0.17 0.16 0.15 0.14 0.14 0.13 0.11 0.13 0.13 0.11 0.17 0.20 0.21 0.20 0.18 0.19 0.17 0.16 0.17 0.17 0.18 0.21 0.21 0.23 0.25 0.25 0.25 0.26 0.27 0.31 0.33 0.34 0.33 0.33
0.64 0.63 0.64 0.63 0.67 0.63 0.63 0.61 0.60 0.51 0.44 0.41 0.36 0.35 0.46 0.52 0.54 0.51 0.35 0.22 0.19 0.22 0.25 0.28 0.28 0.27 0.25 0.24 0.33 0.30 0.24 0.25 0.27 0.26 0.39 0.35 0.29 0.33 0.29 0.26 0.24 0.23 0.20 0.22 0.22 0.19 0.17 0.20 0.24 0.24 0.24 0.23 0.20 0.19 0.16 0.15 0.14 0.15 0.14 0.14 0.13 0.13 0.14 0.16 0.16 0.19 0.21 0.22 0.22 0.20 0.16 0.13 0.14 0.14 0.16 0.19 0.23 0.23 0.25 0.26 0.25 0.26 0.30 0.33 0.35 0.34 0.34 0.34
0.66 0.66 0.64 0.63 0.64 0.64 0.60 0.62 0.47 0.44 0.49 0.44 0.38 0.50 0.51 0.54 0.54 0.53 0.31 0.23 0.22 0.20 0.34 0.31 0.35 0.33 0.34 0.46 0.41 0.29 0.30 0.31 0.30 0.33 0.39 0.37 0.32 0.31 0.28 0.31 0.26 0.21 0.22 0.24 0.24 0.22 0.20 0.26 0.28 0.25 0.24 0.23 0.20 0.17 0.16 0.16 0.14 0.14 0.16 0.15 0.15 0.16 0.16 0.17 0.18 0.18 0.17 0.17 0.19 0.18 0.10 0.10 0.14 0.16 0.16 0.19 0.21 0.22 0.25 0.25 0.24 0.25 0.28 0.31 0.32 0.32 0.34 0.36
0.72 0.70 0.65 0.63 0.64 0.58 0.60 0.41 0.44 0.52 0.45 0.38 0.45 0.57 0.50 0.54 0.63 0.53 0.32 0.19 0.14 0.18 0.26 0.17 0.38 0.27 0.47 0.33 0.39 0.34 0.34 0.25 0.34 0.37 0.40 0.41 0.43 0.32 0.31 0.27 0.28 0.20 0.24 0.24 0.24 0.24 0.23 0.26 0.26 0.23 0.23 0.21 0.19 0.17 0.18 0.18 0.14 0.13 0.13 0.18 0.17 0.17 0.17 0.18 0.18 0.18 0.14 0.13 0.18 0.22 0.14 0.09 0.14 0.14 0.17 0.19 0.20 0.21 0.23 0.24 0.25 0.26 0.28 0.29 0.30 0.32 0.34 0.36
0.73 0.69 0.66 0.63 0.60 0.58 0.37 0.30 0.53 0.48 0.33 0.40 0.55 0.58 0.49 0.52 0.68 0.47 0.21 0.14 0.13 0.18 0.17 0.28 0.30 0.34 0.43 0.39 0.38 0.37 0.19 0.21 0.35 0.40 0.38 0.42 0.34 0.41 0.27 0.25 0.28 0.28 0.29 0.28 0.24 0.20 0.23 0.23 0.23 0.23 0.22 0.20 0.18 0.16 0.18 0.18 0.15 0.13 0.19 0.19 0.19 0.18 0.17 0.18 0.19 0.19 0.17 0.21 0.21 0.22 0.19 0.13 0.11 0.15 0.18 0.20 0.20 0.20 0.21 0.24 0.24 0.26 0.27 0.27 0.29 0.32 0.34 0.35
0.79 0.74 0.69 0.64 0.61 0.57 0.42 0.48 0.42 0.34 0.35 0.48 0.58 0.51 0.53 0.52 0.53 0.42 0.17 0.11 0.10 0.25 0.19 0.26 0.30 0.48 0.39 0.40 0.40 0.28 0.27 0.32 0.23 0.30 0.37 0.40 0.39 0.34 0.29 0.25 0.24 0.24 0.27 0.25 0.15 0.22 0.22 0.21 0.21 0.20 0.20 0.19 0.17 0.19 0.21 0.21 0.16 0.16 0.20 0.21 0.19 0.19 0.19 0.20 0.19 0.19 0.19 0.18 0.15 0.18 0.19 0.14 0.11 0.14 0.19 0.21 0.19 0.19 0.20 0.22 0.23 0.26 0.27 0.28 0.30 0.32 0.33 0.35
0.88 0.82 0.72 0.68 0.65 0.61 0.58 0.48 0.41 0.33 0.48 0.54 0.49 0.48 0.48 0.56 0.41 0.21 0.15 0.10 0.16 0.21 0.46 0.26 0.51 0.39 0.36 0.39 0.34 0.33 0.30 0.32 0.22 0.30 0.35 0.38 0.38 0.33 0.25 0.27 0.28 0.28 0.28 0.27 0.19 0.21 0.25 0.23 0.23 0.24 0.21 0.18 0.21 0.23 0.24 0.22 0.17 0.20 0.22 0.22 0.22 0.21 0.21 0.21 0.20 0.20 0.20 0.18 0.12 0.15 0.17 0.13 0.11 0.15 0.17 0.21 0.19 0.18 0.20 0.22 0.24 0.26 0.27 0.28 0.30 0.32 0.35 0.37
0.91 0.87 0.82 0.77 0.72 0.61 0.54 0.53 0.43 0.50 0.53 0.56 0.50 0.50 0.50 0.41 0.27 0.15 0.12 0.09 0.26 0.19 0.29 0.34 0.31 0.27 0.34 0.28 0.29 0.32 0.28 0.30 0.30 0.31 0.32 0.30 0.32 0.35 0.31 0.35 0.29 0.27 0.25 0.27 0.25 0.24 0.26 0.30 0.30 0.26 0.22 0.23 0.24 0.26 0.26 0.24 0.22 0.23 0.23 0.21 0.21 0.21 0.21 0.23 0.22 0.21 0.19 0.13 0.13 0.16 0.18 0.16 0.11 0.14 0.17 0.17 0.17 0.19 0.21 0.23 0.25 0.27 0.28 0.29 0.31 0.34 0.37 0.38
0.91 0.97 0.95 0.91 0.68 0.67 0.60 0.43 0.45 0.52 0.51 0.50 0.52 0.51 0.39 0.33 0.17 0.13 0.10 0.12 0.17 0.20 0.30 0.29 0.25 0.34 0.28 0.25 0.22 0.30 0.30 0.30 0.29 0.29 0.26 0.30 0.28 0.30 0.29 0.27 0.31 0.26 0.24 0.24 0.22 0.24 0.25 0.26 0.25 0.27 0.30 0.29 0.28 0.25 0.27 0.26 0.24 0.23 0.21 0.20 0.20 0.19 0.22 0.21 0.21 0.21 0.14 0.12 0.15 0.17 0.18 0.19 0.12 0.13 0.19 0.21 0.22 0.22 0.22 0.22 0.25 0.26 0.27 0.29 0.32 0.36 0.38 0.39
0.90 0.88 0.95 0.91 0.84 0.81 0.54 0.43 0.55 0.58 0.50 0.51 0.47 0.35 0.27 0.15 0.22 0.12 0.11 0.17 0.13 0.17 0.19 0.21 0.29 0.29 0.28 0.30 0.27 0.26 0.25 0.28 0.29 0.27 0.24 0.24 0.23 0.23 0.23 0.18 0.21 0.17 0.16 0.17 0.17 0.22 0.20 0.21 0.25 0.27 0.31 0.27 0.24 0.22 0.22 0.24 0.24 0.24 0.23 0.22 0.18 0.16 0.18 0.15 0.17 0.13 0.13 0.12 0.16 0.18 0.19 0.17 0.15 0.16 0.19 0.21 0.22 0.23 0.24 0.25 0.26 0.27 0.28 0.30 0.33 0.37 0.39 0.39
0.89 0.91 0.93 0.91 0.86 0.76 0.72 0.72 0.72 0.63 0.56 0.48 0.36 0.30 0.17 0.12 0.09 0.14 0.14 0.14 0.13 0.22 0.20 0.27 0.25 0.27 0.27 0.26 0.23 0.26 0.30 0.21 0.27 0.26 0.26 0.26 0.23 0.23 0.26 0.25 0.25 0.21 0.14 0.18 0.18 0.17 0.17 0.22 0.23 0.24 0.26 0.27 0.25 0.18 0.18 0.19 0.23 0.24 0.22 0.21 0.19 0.16 0.16 0.14 0.14 0.15 0.15 0.17 0.20 0.20 0.22 0.15 0.16 0.19 0.21 0.21 0.22 0.24 0.25 0.27 0.28 0.29 0.30 0.31 0.34 0.37 0.39 0.40
0.83 0.83 0.78 0.81 0.78 0.81 0.79 0.79 0.77 0.71 0.52 0.45 0.29 0.22 0.16 0.10 0.09 0.15 0.12 0.13 0.13 0.24 0.25 0.21 0.23 0.25 0.24 0.19 0.21 0.25 0.21 0.26 0.25 0.24 0.26 0.24 0.24 0.21 0.23 0.26 0.27 0.23 0.22 0.20 0.16 0.16 0.13 0.13 0.17 0.20 0.17 0.25 0.24 0.22 0.22 0.22 0.24 0.24 0.27 0.24 0.21 0.21 0.17 0.14 0.14 0.13 0.13 0.15 0.18 0.22 0.18 0.14 0.14 0.14 0.21 0.22 0.24 0.25 0.27 0.28 0.30 0.31 0.32 0.33 0.36 0.39 0.40 0.39
0.85 0.79 0.76 0.75 0.74 0.81 0.79 0.77 0.78 0.77 0.56 0.42 0.29 0.19 0.12 0.10 0.13 0.11 0.12 0.12 0.13 0.18 0.18 0.25 0.19 0.18 0.18 0.21 0.23 0.25 0.22 0.19 0.26 0.24 0.23 0.23 0.20 0.21 0.20 0.21 0.25 0.26 0.25 0.19 0.21 0.20 0.17 0.16 0.20 0.25 0.25 0.27 0.25 0.29 0.30 0.27 0.26 0.27 0.28 0.30 0.26 0.24 0.25 0.18 0.18 0.18 0.17 0.17 0.16 0.17 0.16 0.17 0.16 0.21 0.22 0.24 0.25 0.25 0.27 0.29 0.31 0.31 0.32 0.33 0.35 0.38 0.39 0.39
0.85 0.76 0.74 0.62 0.59 0.63 0.70 0.74 0.78 0.76 0.56 0.38 0.27 0.21 0.14 0.13 0.11 0.15 0.12 0.15 0.15 0.13 0.17 0.20 0.19 0.15 0.15 0.17 0.21 0.20 0.28 0.21 0.23 0.24 0.23 0.23 0.24 0.22 0.25 0.25 0.25 0.27 0.23 0.19 0.21 0.17 0.19 0.17 0.25 0.28 0.31 0.29 0.29 0.31 0.29 0.31 0.19 0.24 0.27 0.23 0.25 0.32 0.26 0.22 0.22 0.23 0.23 0.20 0.15 0.19 0.17 0.18 0.22 0.21 0.23 0.23 0.23 0.24 0.28 0.30 0.30 0.31 0.32 0.34 0.35 0.38 0.39 0.39
0.72 0.74 0.60 0.60 0.57 0.64 0.70 0.73 0.76 0.71 0.57 0.37 0.27 0.21 0.22 0.22 0.21 0.20 0.21 0.16 0.16 0.17 0.17 0.12 0.15 0.15 0.15 0.15 0.17 0.20 0.22 0.26 0.24 0.23 0.20 0.25 0.23 0.25 0.26 0.27 0.30 0.30 0.30 0.24 0.21 0.23 0.19 0.19 0.28 0.27 0.26 0.31 0.32 0.32 0.31 0.31 0.29 0.27 0.22 0.25 0.29 0.31 0.28 0.24 0.18 0.19 0.18 0.15 0.13 0.15 0.13 0.13 0.15 0.11 0.20 0.21 0.23 0.26 0.29 0.30 0.30 0.31 0.34 0.35 0.37 0.38 0.40 0.39
0.77 0.69 0.63 0.57 0.57 0.64 0.69 0.71 0.72 0.67 0.52 0.36 0.26 0.24 0.29 0.25 0.30 0.28 0.30 0.27 0.24 0.23 0.19 0.17 0.17 0.21 0.18 0.18 0.20 0.23 0.26 0.21 0.22 0.25 0.21 0.24 0.20 0.29 0.26 0.26 0.30 0.29 0.27 0.29 0.22 0.23 0.25 0.20 0.24 0.29 0.29 0.31 0.34 0.32 0.29 0.32 0.34 0.27 0.24 0.33 0.22 0.17 0.16 0.21 0.20 0.14 0.13 0.13 0.13 0.13 0.14 0.13 0.15 0.14 0.18 0.19 0.23 0.27 0.30 0.30 0.30 0.32 0.34 0.36 0.38 0.39 0.40 0.39
0.93 0.76 0.56 0.62 0.72 0.69 0.67 0.71 0.67 0.58 0.42 0.29 0.24 0.23 0.27 0.26 0.28 0.27 0.29 0.29 0.28 0.26 0.23 0.24 0.22 0.25 0.25 0.23 0.23 0.25 0.25 0.20 0.23 0.21 0.18 0.21 0.19 0.24 0.23 0.25 0.25 0.29 0.30 0.30 0.27 0.26 0.27 0.20 0.22 0.30 0.29 0.31 0.31 0.30 0.22 0.26 0.30 0.29 0.28 0.25 0.25 0.22 0.18 0.16 0.17 0.18 0.16 0.13 0.13 0.11 0.13 0.11 0.17 0.17 0.20 0.21 0.25 0.29 0.30 0.29 0.30 0.34 0.36 0.37 0.39 0.39 0.38 0.38
0.92 0.78 0.65 0.81 0.81 0.78 0.73 0.69 0.57 0.51 0.40 0.25 0.22 0.24 0.29 0.27 0.28 0.29 0.28 0.25 0.23 0.21 0.21 0.22 0.24 0.21 0.24 0.23 0.23 0.20 0.23 0.21 0.20 0.20 0.20 0.21 0.20 0.29 0.25 0.31 0.27 0.29 0.31 0.32 0.29 0.31 0.26 0.28 0.20 0.25 0.31 0.30 0.23 0.26 0.22 0.22 0.20 0.22 0.22 0.21 0.21 0.21 0.24 0.22 0.21 0.18 0.15 0.14 0.14 0.13 0.12 0.11 0.17 0.22 0.23 0.25 0.27 0.30 0.30 0.30 0.32 0.35 0.37 0.39 0.39 0.39 0.38 0.38
0.99 0.81 0.76 1.01 1.00 0.97 0.84 0.69 0.50 0.39 0.35 0.36 0.34 0.29 0.30 0.27 0.30 0.29 0.29 0.30 0.26 0.27 0.22 0.21 0.21 0.20 0.20 0.21 0.22 0.25 0.23 0.24 0.24 0.22 0.23 0.23 0.23 0.20 0.28 0.29 0.29 0.25 0.29 0.29 0.28 0.28 0.25 0.24 0.19 0.19 0.20 0.20 0.19 0.23 0.23 0.22 0.21 0.19 0.18 0.18 0.18 0.18 0.17 0.16 0.14 0.21 0.20 0.17 0.14 0.14 0.12 0.13 0.19 0.26 0.26 0.26 0.29 0.31 0.31 0.32 0.34 0.36 0.38 0.39 0.39 0.38 0.38 0.38
0.88 0.67 0.71 1.05 1.09 1.02 0.82 0.60 0.54 0.52 0.44 0.35 0.31 0.35 0.32 0.36 0.32 0.31 0.31 0.30 0.28 0.24 0.29 0.24 0.24 0.22 0.21 0.21 0.22 0.23 0.23 0.23 0.24 0.23 0.24 0.21 0.24 0.22 0.23 0.26 0.25 0.24 0.21 0.20 0.20 0.25 0.24 0.22 0.19 0.15 0.15 0.15 0.18 0.22 0.24 0.25 0.25 0.24 0.22 0.20 0.22 0.21 0.20 0.18 0.14 0.15 0.19 0.19 0.20 0.21 0.19 0.14 0.22 0.26 0.28 0.28 0.29 0.31 0.33 0.35 0.35 0.37 0.39 0.39 0.39 0.38 0.38 0.38
0.80 0.72 0.99 1.07 1.11 0.98 0.79 0.62 0.61 0.55 0.47 0.46 0.51 0.46 0.44 0.41 0.36 0.35 0.31 0.30 0.26 0.27 0.24 0.23 0.22 0.22 0.24 0.22 0.23 0.22 0.22 0.20 0.20 0.20 0.20 0.21 0.20 0.20 0.21 0.23 0.25 0.25 0.25 0.24 0.27 0.26 0.27 0.21 0.18 0.17 0.19 0.21 0.23 0.24 0.24 0.25 0.26 0.24 0.24 0.24 0.23 0.20 0.20 0.18 0.18 0.19 0.18 0.19 0.19 0.20 0.19 0.16 0.22 0.28 0.29 0.29 0.31 0.33 0.34 0.36 0.37 0.38 0.39 0.38 0.38 0.37 0.38 0.38
0.86 0.83 0.88 1.07 1.12 0.98 0.73 0.55 0.51 0.51 0.53 0.56 0.54 0.48 0.51 0.46 0.41 0.37 0.34 0.33 0.30 0.27 0.24 0.24 0.25 0.26 0.22 0.25 0.23 0.20 0.21 0.16 0.19 0.18 0.18 0.20 0.19 0.23 0.24 0.25 0.27 0.25 0.24 0.24 0.20 0.26 0.20 0.23 0.18 0.16 0.16 0.18 0.20 0.22 0.22 0.25 0.26 0.23 0.21 0.22 0.23 0.23 0.23 0.24 0.25 0.26 0.21 0.20 0.20 0.20 0.16 0.16 0.23 0.29 0.29 0.30 0.31 0.32 0.34 0.36 0.38 0.37 0.38 0.38 0.37 0.38 0.38 0.38
0.90 0.91 0.88 0.93 1.02 0.92 0.66 0.63 0.59 0.58 0.57 0.53 0.52 0.48 0.47 0.48 0.50 0.48 0.43 0.37 0.37 0.34 0.32 0.31 0.31 0.31 0.29 0.28 0.26 0.25 0.25 0.21 0.17 0.21 0.20 0.20 0.21 0.26 0.28 0.29 0.31 0.28 0.29 0.28 0.25 0.28 0.21 0.19 0.20 0.16 0.14 0.13 0.12 0.13 0.14 0.17 0.19 0.21 0.23 0.23 0.24 0.23 0.23 0.23 0.21 0.22 0.20 0.20 0.23 0.22 0.19 0.21 0.25 0.27 0.28 0.30 0.31 0.32 0.35 0.37 0.38 0.38 0.38 0.37 0.37 0.38 0.38 0.38
0.78 0.60 0.74 0.79 0.85 0.81 0.77 0.77 0.70 0.61 0.58 0.57 0.52 0.51 0.51 0.46 0.47 0.52 0.52 0.47 0.47 0.44 0.41 0.40 0.41 0.39 0.34 0.33 0.30 0.28 0.27 0.30 0.26 0.24 0.25 0.24 0.25 0.29 0.32 0.32 0.31 0.29 0.30 0.31 0.31 0.29 0.24 0.23 0.22 0.19 0.17 0.16 0.16 0.16 0.19 0.21 0.21 0.19 0.20 0.21 0.21 0.23 0.24 0.24 0.23 0.22 0.20 0.22 0.23 0.22 0.22 0.23 0.24 0.24 0.27 0.29 0.31 0.33 0.35 0.36 0.36 0.37 0.37 0.38 0.38 0.38 0.39 0.39
0.88 0.69 0.67 0.62 0.74 0.72 0.66 0.69 0.67 0.65 0.57 0.60 0.52 0.55 0.50 0.51 0.52 0.52 0.55 0.44 0.49 0.47 0.45 0.43 0.40 0.37 0.34 0.33 0.31 0.31 0.31 0.29 0.30 0.29 0.27 0.27 0.31 0.30 0.32 0.32 0.32 0.32 0.32 0.31 0.33 0.30 0.26 0.23 0.23 0.23 0.22 0.21 0.20 0.20 0.21 0.21 0.19 0.20 0.20 0.21 0.22 0.22 0.23 0.23 0.21 0.20 0.24 0.25 0.22 0.23 0.26 0.26 0.25 0.24 0.28 0.31 0.33 0.36 0.36 0.37 0.37 0.37 0.37 0.38 0.39 0.39 0.40 0.39
0.69 0.73 0.75 0.77 0.65 0.58 0.59 0.58 0.65 0.64 0.66 0.64 0.58 0.60 0.54 0.52 0.53 0.47 0.53 0.53 0.51 0.51 0.43 0.43 0.42 0.40 0.37 0.36 0.35 0.31 0.31 0.31 0.31 0.28 0.30 0.31 0.30 0.31 0.30 0.33 0.31 0.34 0.34 0.32 0.34 0.29 0.25 0.23 0.25 0.26 0.25 0.26 0.26 0.24 0.25 0.25 0.24 0.23 0.23 0.22 0.22 0.24 0.25 0.23 0.24 0.25 0.26 0.24 0.21 0.24 0.27 0.26 0.25 0.26 0.30 0.33 0.35 0.37 0.37 0.37 0.39 0.39 0.39 0.39 0.39 0.39 0.39 0.39
0.86 0.82 0.80 0.83 0.67 0.68 0.66 0.66 0.69 0.68 0.66 0.64 0.60 0.59 0.55 0.53 0.50 0.53 0.52 0.53 0.53 0.51 0.51 0.42 0.41 0.42 0.43 0.43 0.39 0.34 0.34 0.30 0.29 0.33 0.32 0.32 0.33 0.32 0.29 0.30 0.35 0.36 0.36 0.33 0.33 0.34 0.30 0.27 0.28 0.29 0.28 0.28 0.28 0.28 0.29 0.28 0.26 0.26 0.26 0.26 0.26 0.26 0.26 0.26 0.26 0.27 0.27 0.27 0.27 0.27 0.28 0.26 0.26 0.28 0.33 0.36 0.38 0.39 0.40 0.40 0.40 0.39 0.39 0.40 0.40 0.39 0.39 0.38
0.73 0.69 0.68 0.80 0.76 0.71 0.71 0.70 0.69 0.67 0.61 0.66 0.58 0.58 0.57 0.55 0.52 0.55 0.58 0.55 0.51 0.53 0.58 0.50 0.47 0.48 0.48 0.45 0.42 0.39 0.39 0.39 0.38 0.36 0.37 0.36 0.34 0.34 0.32 0.31 0.31 0.35 0.36 0.34 0.34 0.37 0.33 0.29 0.31 0.31 0.29 0.28 0.29 0.30 0.32 0.31 0.31 0.29 0.30 0.29 0.28 0.29 0.28 0.28 0.28 0.28 0.29 0.29 0.29 0.29 0.28 0.26 0.27 0.33 0.36 0.38 0.39 0.41 0.41 0.39 0.39 0.40 0.40 0.40 0.40 0.39 0.38 0.38
0.90 0.89 0.83 0.72 0.63 0.68 0.69 0.68 0.64 0.62 0.59 0.62 0.58 0.59 0.58 0.57 0.56 0.59 0.59 0.62 0.57 0.54 0.55 0.52 0.54 0.53 0.52 0.50 0.48 0.46 0.46 0.46 0.46 0.45 0.43 0.39 0.33 0.37 0.34 0.35 0.37 0.34 0.35 0.35 0.35 0.35 0.36 0.32 0.35 0.34 0.30 0.29 0.30 0.31 0.32 0.33 0.32 0.31 0.29 0.27 0.27 0.30 0.29 0.28 0.27 0.29 0.29 0.27 0.28 0.29 0.26 0.25 0.29 0.35 0.37 0.38 0.39 0.39 0.38 0.38 0.39 0.40 0.41 0.41 0.40 0.39 0.39 0.39
0.98 0.99 0.91 0.77 0.61 0.66 0.64 0.67 0.66 0.60 0.52 0.58 0.59 0.59 0.58 0.58 0.61 0.63 0.57 0.62 0.62 0.60 0.60 0.59 0.57 0.55 0.53 0.51 0.49 0.49 0.52 0.54 0.52 0.51 0.48 0.46 0.45 0.44 0.44 0.43 0.42 0.40 0.38 0.36 0.36 0.33 0.35 0.34 0.33 0.33 0.29 0.28 0.31 0.33 0.32 0.32 0.30 0.28 0.24 0.25 0.30 0.31 0.30 0.30 0.31 0.31 0.31 0.31 0.29 0.26 0.25 0.30 0.33 0.36 0.36 0.36 0.38 0.39 0.39 0.39 0.40 0.41 0.42 0.41 0.40 0.40 0.40 0.41
Wind_Speed
9 9 8 8 8 8 8 9 9 9 9 9 9 10 10 11 11 11 11 11 10 10 9 8 7 7 7 7 8 9 10 9 9 9 9 9 9 10 10 11 11 11 11 11 11 10 9 9 9 9 7 7 7 7 7 8 8 8 7 7 8 7 8 8 8 9 9 10 11 11 11 10 11 12 12 13 13 13 14 15 16 16 16 16 16 14 12 13
10 10 10 10 10 10 10 10 10 10 10 10 10 10 11 11 11 11 12 11 11 10 9 8 7 7 7 7 7 8 9 9 9 9 9 9 10 10 10 11 11 11 11 11 12 11 10 9 9 9 8 6 7 7 7 8 7 7 6 7 8 7 8 7 7 8 9 10 10 10 11 11 12 12 11 13 14 14 14 16 16 16 16 16 15 13 13 13
11 11 11 11 11 11 11 11 11 11 12 12 12 11 12 12 12 12 12 12 11 10 10 9 8 8 7 7 7 8 8 8 8 8 9 9 10 10 11 11 11 11 11 11 11 11 10 10 10 9 8 7 7 7 7 8 7 6 6 7 8 8 8 8 8 8 9 9 9 10 10 11 13 12 12 13 13 14 15 15 15 16 16 15 15 14 14 14
13 13 13 12 12 13 13 13 13 13 13 13 13 13 13 13 13 13 13 13 12 11 10 10 9 9 8 8 8 8 8 8 8 8 9 10 10 11 11 11 11 10 10 10 10 11 10 10 10 9 8 7 8 7 7 9 8 7 6 7 8 7 8 9 8 9 9 9 9 9 10 12 13 12 12 12 12 15 16 17 16 17 16 15 15 15 15 15
14 14 14 14 14 14 14 14 14 14 14 14 14 14 14 14 14 14 14 13 13 12 11 11 10 10 9 9 9 9 9 9 8 8 9 10 11 11 11 11 11 10 10 10 10 10 11 11 11 10 9 8 9 8 8 9 8 7 8 8 8 7 9 10 9 9 9 9 9 9 10 12 11 12 13 12 13 15 16 18 18 18 17 16 16 16 15 15
16 16 15 15 15 15 15 15 15 15 16 16 15 15 15 15 15 15 15 14 14 13 12 12 11 11 10 10 10 9 9 9 9 9 10 10 11 11 11 11 11 10 10 11 11 11 11 12 11 10 9 8 9 8 9 10 9 8 9 9 9 8 9 11 9 10 9 9 10 10 12 11 11 13 14 13 15 16 16 17 17 17 17 16 16 16 16 16
17 17 17 17 16 16 16 16 16 16 16 16 16 17 17 16 16 16 16 15 15 14 13 13 13 12 11 11 10 10 10 11 11 10 11 11 11 12 11 11 11 11 11 12 12 11 11 12 11 9 9 9 9 9 10 11 10 8 9 10 9 9 11 11 10 11 11 11 12 12 12 11 12 14 14 14 18 18 17 17 16 16 16 16 16 17 18 17
19 19 19 18 18 18 18 18 18 17 17 17 18 18 18 17 17 17 17 17 16 15 15 14 14 13 12 11 11 12 12 12 11 11 12 12 12 13 12 12 12 12 12 12 12 11 11 12 11 9 9 9 9 9 11 11 11 9 9 11 10 10 12 12 12 12 12 13 13 12 12 13 13 14 14 16 18 17 16 16 15 15 15 16 17 18 18 18
20 20 20 20 19 19 19 19 19 19 19 19 19 19 19 19 18 19 19 18 17 17 16 15 15 14 13 12 11 13 13 13 12 12 13 13 13 13 13 13 13 12 12 12 13 12 12 12 12 11 10 9 9 10 11 11 11 10 10 11 11 12 13 13 13 13 13 14 12 12 13 15 15 15 16 17 17 15 15 15 15 15 16 17 18 18 18 19
21 21 21 21 20 20 20 20 20 20 20 20 20 20 20 20 19 20 20 19 18 18 17 16 16 15 14 13 12 13 14 13 13 14 14 14 14 14 14 14 14 13 13 13 13 12 12 12 12 12 10 10 10 11 11 11 11 11 12 13 13 14 14 14 14 14 14 14 13 13 15 16 15 15 16 16 15 15 15 15 16 16 17 18 18 19 19 19
22 22 22 22 22 21 21 21 21 21 21 22 22 21 22 21 21 21 21 20 19 18 18 17 17 16 15 14 13 14 15 14 14 15 15 15 14 15 15 15 15 14 14 14 14 13 13 12 13 12 12 12 12 12 12 11 11 12 13 14 15 15 15 14 15 15 15 14 14 13 15 16 14 14 16 16 15 15 15 16 17 17 18 18 19 19 20 21
23 23 23 23 23 23 22 22 22 22 23 23 23 23 23 23 22 22 22 21 20 19 18 17 17 16 15 15 16 16 16 15 16 15 15 15 15 15 15 16 16 15 15 14 15 15 13 13 13 13 14 13 14 13 12 13 13 13 13 14 16 16 15 14 15 16 15 15 15 14 16 16 14 15 17 16 15 15 15 16 17 18 19 19 20 20 21 21
24 24 24 24 24 24 24 23 23 24 24 24 24 24 24 24 23 23 23 22 20 19 19 18 18 17 17 17 18 18 17 17 17 16 16 16 15 16 16 17 16 16 16 15 15 15 14 15 14 14 14 13 14 14 14 15 15 14 14 14 16 16 15 15 15 16 15 16 16 15 17 17 16 18 18 16 15 15 15 17 18 18 19 20 20 21 21 22
25 25 25 25 25 25 25 25 25 25 25 25 25 25 25 25 25 24 24 22 21 21 20 19 19 18 18 19 19 19 19 18 18 17 17 17 17 17 18 18 18 18 17 16 16 16 15 15 15 14 15 14 15 15 16 17 16 15 15 15 15 16 16 17 17 15 15 17 17 16 18 19 18 20 19 17 17 16 17 18 19 19 20 20 21 21 22 23
26 26 26 25 25 26 26 26 26 26 26 26 27 27 27 26 26 25 24 23 22 21 21 21 20 19 19 20 20 20 20 19 18 19 19 19 18 19 19 19 19 19 19 18 17 17 16 16 16 15 16 16 16 16 17 17 17 17 17 17 17 16 18 20 18 16 17 18 18 17 19 21 21 21 20 19 18 18 19 20 20 21 21 21 22 22 23 23
27 27 27 26 26 26 27 27 27 27 27 27 28 28 28 27 27 26 24 23 22 23 22 22 21 20 20 21 20 20 20 19 19 20 20 20 19 20 20 20 20 20 20 19 19 18 18 17 16 16 16 16 16 16 17 18 18 18 17 18 18 18 19 20 19 18 18 19 19 20 21 22 21 20 20 20 20 20 21 22 22 22 22 22 22 23 23 23
27 27 27 27 27 27 27 27 28 28 28 28 29 29 29 28 26 24 23 23 23 23 22 22 22 21 22 22 21 21 21 20 20 20 21 21 21 20 21 21 21 22 21 20 20 19 19 18 18 18 17 17 17 17 18 19 19 19 19 19 20 20 20 21 21 21 20 19 21 22 23 24 23 22 21 21 21 21 22 23 23 23 23 23 23 23 23 23
28 28 28 28 28 28 28 28 28 28 28 29 30 30 29 27 25 24 24 24 23 23 22 22 22 22 23 22 21 21 21 21 21 21 22 22 21 21 21 22 22 22 22 21 21 20 20 19 18 19 18 19 19 17 19 20 19 20 21 21 21 21 21 22 23 22 21 22 22 23 25 27 27 25 24 23 23 23 24 25 24 23 23 23 23 23 23 24
29 29 29 29 28 28 28 29 29 29 29 30 30 30 28 26 25 25 24 24 24 23 23 23 23 22 23 23 23 23 23 23 22 22 22 22 22 22 22 22 22 22 21 21 21 20 20 19 19 19 20 21 20 18 19 20 20 21 21 21 22 23 24 23 24 24 23 24 25 25 27 28 28 27 25 24 24 25 26 25 24 23 23 23 24 24 24 25
31 30 30 30 29 29 29 29 30 30 30 29 29 28 26 26 26 26 26 26 26 26 25 26 26 26 26 26 25 25 24 24 23 23 23 23 23 23 22 22 22 21 20 21 21 20 19 20 21 21 21 22 22 20 20 21 20 21 21 22 23 24 26 25 24 25 24 25 27 27 27 29 29 29 27 25 23 24 25 24 24 23 23 24 24 25 25 26
33 32 32 31 31 30 30 30 30 31 30 29 28 26 25 26 26 28 28 28 28 28 28 29 28 29 29 27 27 26 25 25 25 25 24 24 23 23 23 22 21 21 21 20 21 20 19 21 22 22 22 22 21 20 20 21 21 22 22 24 25 25 27 27 25 26 25 26 28 28 29 31 30 29 29 25 22 23 23 23 24 24 24 25 25 26 26 25
34 34 33 33 32 32 31 31 31 31 30 29 27 26 26 27 28 28 29 30 30 29 29 29 29 30 30 29 28 27 25 26 26 26 25 25 24 24 23 22 21 22 21 20 21 21 21 23 23 22 21 20 20 20 20 22 22 23 23 24 26 26 27 28 26 26 26 26 29 31 32 34 32 30 30 26 22 23 23 23 25 25 25 25 25 25 25 25
35 35 34 34 33 33 32 32 32 31 29 28 27 26 26 27 28 29 29 31 32 30 30 30 30 31 30 30 29 27 27 27 26 27 26 25 24 24 22 21 21 21 21 21 21 21 22 24 23 21 20 19 21 22 21 23 24 24 24 25 28 27 27 28 27 27 27 28 30 32 35 36 32 29 27 24 24 25 24 24 26 25 25 25 24 25 25 26
35 35 35 34 34 33 33 33 32 30 29 28 27 27 27 28 28 29 30 31 33 31 30 31 31 31 30 29 29 28 28 28 26 27 26 24 23 22 22 21 21 22 22 22 22 23 25 24 21 20 21 21 22 23 23 24 26 27 26 26 28 28 27 28 29 29 29 29 30 32 35 35 29 25 23 23 25 25 23 25 26 25 24 24 24 26 27 27
36 35 35 35 34 33 33 33 31 30 30 29 28 28 28 28 28 29 29 31 33 32 30 30 30 30 29 28 28 27 27 27 27 26 25 23 22 21 22 21 22 23 23 22 23 26 26 24 22 22 23 23 23 25 25 25 27 29 27 27 29 29 28 29 29 29 30 29 28 28 30 31 26 23 25 25 24 24 23 24 25 24 23 23 25 27 27 27
36 36 35 35 34 34 33 32 31 31 30 29 29 29 28 29 29 29 29 30 33 32 29 29 29 28 27 26 26 25 25 26 26 24 23 23 23 22 22 23 23 24 23 22 24 26 25 23 23 23 24 24 25 27 27 25 26 29 28 26 27 27 28 29 29 29 29 28 29 26 25 30 30 27 30 27 24 25 25 24 26 24 23 24 28 28 27 27
36 36 35 35 35 34 33 33 32 31 30 30 30 29 29 29 28 29 29 30 33 31 27 27 27 27 26 25 24 23 24 25 23 23 23 23 24 24 24 25 24 25 24 23 25 26 24 23 24 23 24 25 26 28 27 24 25 29 29 25 25 26 27 28 28 29 30 30 32 28 25 31 34 31 30 25 24 28 27 26 26 25 25 28 29 28 28 29
36 36 35 35 35 34 33 33 33 32 31 31 30 30 30 29 29 28 27 29 30 27 25 25 25 25 25 24 23 23 24 24 23 25 25 25 26 25 26 27 25 25 25 24 27 27 25 25 26 25 25 26 27 28 27 25 27 30 28 26 26 26 27 27 27 29 30 30 32 28 24 28 33 31 28 25 25 27 27 27 27 25 28 30 29 29 30 30
36 36 36 36 35 34 34 34 33 33 32 31 31 31 30 29 29 27 27 30 30 27 26 25 25 25 24 24 25 25 26 26 25 27 26 26 27 26 27 27 25 26 27 27 29 29 27 27 27 26 27 28 28 28 28 27 28 29 27 27 27 27 27 27 28 29 29 29 32 29 24 26 31 30 25 24 25 27 28 28 26 28 30 29 29 31 31 30
37 37 36 36 35 35 34 34 34 33 32 32 31 31 30 29 29 27 29 32 30 27 26 26 25 25 24 24 26 27 27 27 26 26 26 26 27 26 27 26 25 26 27 29 30 30 28 28 28 28 28 28 27 28 29 28 28 27 26 28 28 28 28 28 28 28 27 30 32 29 25 26 29 28 24 24 26 27 27 27 27 30 30 29 30 31 30 30
37 37 36 36 36 36 35 35 34 33 32 32 31 30 29 30 29 29 32 33 30 29 28 27 27 26 24 25 26 26 26 27 27 26 26 27 27 27 27 26 26 26 28 30 30 30 30 29 30 30 29 27 27 28 29 28 28 27 27 27 28 28 27 27 28 25 25 29 30 27 24 26 30 29 28 29 31 29 26 26 29 30 30 30 31 31 30 30
38 38 37 37 37 36 36 35 34 33 33 32 31 30 29 31 32 34 34 32 29 29 28 28 28 27 26 26 27 27 26 27 27 27 27 28 28 29 28 28 27 26 28 30 30 30 31 31 30 29 29 28 27 28 29 29 28 27 27 26 26 26 26 26 26 24 25 29 28 26 25 29 34 34 33 33 32 29 28 29 29 29 30 32 32 31 30 29
38 38 37 37 37 37 36 36 35 34 33 32 31 30 29 32 36 35 34 32 30 29 27 26 27 26 26 27 29 28 28 29 28 28 28 28 29 31 31 30 28 27 29 29 29 29 31 32 30 29 30 29 27 28 29 29 28 27 26 25 24 23 23 26 27 26 28 30 29 27 27 31 34 35 33 31 30 30 31 30 29 30 32 33 33 31 30 30
38 38 38 38 38 37 37 36 35 34 33 33 32 31 32 36 37 35 35 35 33 32 30 28 28 28 28 29 30 29 29 30 29 28 30 30 31 33 33 32 30 28 29 29 29 29 30 33 31 28 29 28 28 28 27 27 27 27 26 25 25 23 23 26 26 27 29 31 30 27 28 30 31 32 31 30 32 32 31 30 29 32 33 33 33 31 30 30
39 38 39 39 38 38 37 37 36 35 34 34 33 34 38 40 38 36 37 36 34 33 33 32 30 30 32 32 32 31 31 31 30 29 31 32 32 33 33 32 31 29 28 29 30 29 30 34 33 30 29 28 28 28 26 25 27 28 26 25 27 27 26 27 28 28 28 30 31 29 30 32 32 35 35 32 33 32 29 29 30 32 33 32 32 31 30 31
39 39 39 39 39 39 38 37 36 35 35 34 35 39 43 42 39 38 38 36 35 34 32 33 32 32 35 35 34 34 33 32 32 31 33 33 34 35 34 33 32 31 30 30 30 29 30 33 32 30 30 29 29 29 28 28 28 27 27 27 29 27 26 27 29 29 26 29 32 30 33 36 34 35 35 31 31 30 29 30 30 31 32 32 32 32 33 33
40 40 40 40 40 39 38 37 36 36 36 36 39 44 44 43 41 40 38 37 36 33 32 35 35 34 35 35 35 34 32 33 34 33 34 34 35 35 35 35 33 32 33 32 31 30 30 33 33 31 31 31 30 29 29 29 27 27 28 29 28 27 26 25 26 27 26 28 32 31 34 36 32 32 32 30 31 32 30 30 31 32 33 33 34 35 35 34
41 41 43 43 41 40 38 37 37 38 37 38 44 47 43 43 43 41 39 39 37 35 35 38 37 36 36 36 36 34 32 34 34 34 35 35 36 35 33 34 34 33 34 32 31 32 30 32 34 32 32 32 31 30 30 29 28 29 31 30 27 26 26 25 24 26 27 27 31 33 36 36 32 31 31 31 31 32 31 31 32 35 35 35 36 37 35 34
42 43 45 44 42 41 39 38 38 39 39 42 46 47 43 43 44 42 41 40 39 38 39 40 39 38 37 37 36 35 35 36 35 35 36 35 37 36 33 34 34 33 33 31 31 32 29 30 32 31 32 32 31 30 31 30 30 30 31 31 29 27 26 26 26 26 26 27 31 33 35 36 33 30 30 31 31 32 32 33 35 37 36 36 37 37 35 34
43 44 45 43 41 41 39 38 39 40 42 45 47 45 43 43 43 43 43 42 41 40 41 41 40 39 39 39 38 37 37 37 36 36 37 36 37 37 36 35 33 32 31 30 31 30 29 30 31 31 32 32 32 33 33 32 31 30 31 31 31 29 27 28 29 28 26 27 29 30 34 38 35 30 31 32 33 34 34 35 37 38 37 38 38 36 34 34
42 43 44 42 40 40 38 39 41 42 44 47 47 45 44 43 43 44 45 44 43 42 41 40 40 41 40 40 40 38 37 37 37 37 38 39 38 38 38 36 33 31 30 30 31 31 30 31 32 33 34 35 36 36 35 34 32 32 32 32 32 30 28 28 30 31 29 29 30 29 34 42 39 33 34 35 34 36 37 37 38 38 38 38 38 36 35 35
43 44 42 40 40 40 39 40 42 43 45 47 47 45 45 44 43 44 44 44 43 42 41 41 42 42 41 40 40 39 38 39 39 39 40 40 40 40 38 35 33 31 30 31 33 32 30 30 33 36 37 38 38 36 34 34 33 33 33 32 31 31 30 30 31 31 30 32 32 29 33 43 42 36 37 37 36 38 38 38 39 38 38 38 37 36 35 35
46 45 42 41 43 42 39 40 42 43 45 46 45 45 45 44 44 44 44 44 44 43 43 43 43 43 43 41 40 40 40 40 41 41 41 41 42 41 38 35 34 33 32 33 33 32 30 31 34 37 37 37 37 36 34 33 32 33 34 33 32 33 34 33 33 32 31 33 32 29 34 44 43 38 39 39 38 40 41 40 38 37 37 37 36 35 35 35
47 46 44 44 45 44 43 43 44 45 45 44 45 46 46 45 45 45 45 45 44 43 44 45 44 43 43 41 40 42 41 41 42 42 41 42 42 41 38 36 36 35 35 35 33 32 32 32 32 34 35 35 36 34 34 34 33 34 35 33 33 36 35 34 34 33 34 36 32 29 38 46 43 39 40 40 41 43 42 40 38 38 37 36 35 35 35 35
46 45 45 45 47 47 47 45 44 45 46 46 47 47 46 45 46 46 46 46 46 44 44 44 43 42 43 41 42 43 42 43 43 42 41 43 42 40 39 39 38 38 38 37 34 32 33 34 33 34 35 36 36 35 34 35 34 35 36 35 36 38 37 36 36 34 37 37 32 35 45 49 46 43 41 42 43 43 41 39 39 39 38 36 35 36 36 36
46 45 44 45 47 49 50 48 45 44 45 45 46 45 46 46 45 45 45 46 46 45 44 44 43 42 43 43 43 45 44 44 43 42 43 43 42 41 40 39 40 39 38 36 34 33 34 37 39 42 43 42 42 41 37 34 35 37 39 38 39 40 39 39 39 38 39 39 38 45 50 49 51 50 44 43 43 42 41 40 39 38 37 36 37 37 37 37
47 47 46 44 45 47 50 50 48 47 44 44 44 44 46 47 44 43 44 45 45 45 44 45 44 43 43 43 43 44 44 42 43 45 46 45 42 41 39 38 40 39 37 36 36 35 37 41 43 46 47 46 46 44 39 36 38 40 40 41 41 40 39 41 44 44 43 40 43 50 50 48 54 53 46 44 44 42 43 42 39 38 38 38 38 38 37 37
49 49 49 47 45 46 48 49 49 49 47 45 45 45 46 47 46 45 45 44 44 44 44 45 46 47 46 42 41 42 42 42 44 47 47 45 41 40 39 38 38 38 36 36 37 37 39 43 44 44 46 46 46 45 41 39 42 41 41 43 44 42 41 43 47 49 46 44 48 52 50 51 55 51 45 45 44 43 44 43 40 39 38 37 37 37 36 36
50 49 50 51 50 49 50 50 48 48 49 49 48 48 48 49 50 47 44 44 45 46 46 47 49 49 47 44 42 43 43 44 46 46 45 44 41 39 39 39 38 37 36 36 37 37 39 43 43 43 45 46 47 47 43 41 43 43 43 46 46 44 43 45 49 51 49 49 53 54 53 55 55 49 45 46 45 44 44 42 39 37 37 36 36 36 36 35
53 51 50 51 52 52 51 51 48 48 49 48 48 49 49 51 51 48 44 45 47 46 47 50 51 47 45 45 46 47 48 47 48 46 43 41 40 38 39 39 38 37 37 38 37 36 38 42 42 42 44 47 49 48 43 42 44 44 46 51 50 44 43 48 51 50 48 49 53 54 54 56 53 47 46 47 46 44 43 42 40 38 37 36 36 35 35 34
57 56 54 52 53 53 52 51 50 50 49 48 48 49 48 50 50 47 45 47 48 47 46 49 49 45 43 45 47 50 51 49 48 46 43 40 40 39 39 40 38 38 38 39 37 37 39 41 42 41 43 47 48 45 43 42 42 44 51 56 52 45 46 50 50 47 47 49 51 51 51 53 50 46 45 45 44 43 43 42 41 40 38 36 36 36 35 35
57 56 56 55 54 53 52 51 51 51 51 51 52 52 50 50 49 45 45 47 49 49 47 46 47 45 43 46 49 51 51 49 49 49 46 43 42 43 43 42 40 39 39 39 39 40 41 42 42 41 43 46 45 41 40 38 38 43 50 52 48 47 49 51 49 48 48 48 48 48 50 51 49 46 46 46 44 43 42 40 40 40 38 36 37 37 37 36
Wind_Direction
280 284 287 292 296 299 304 308 311 315 319 321 326 329 332 336 339 342 344 345 345 345 347 347 346 348 355 2 8 11 15 19 19 22 22 16 11 8 4 3 3 3 5 7 8 7 359 354 348 347 343 338 338 332 332 332 330 327 323 323 316 307 302 297 289 289 294 293 290 285 283 289 291 287 288 293 295 290 287 286 287 286 285 285 286 284 270 261
277 281 284 288 291 295 298 301 304 307 311 314 317 320 324 327 329 332 334 336 336 336 336 336 333 331 335 343 350 356 3 8 11 15 14 9 6 3 0 1 2 1 4 7 9 10 5 357 350 351 349 341 338 337 337 334 335 330 323 327 314 303 304 302 295 291 299 300 290 288 288 289 290 286 285 290 292 290 287 287 290 288 285 283 281 278 270 264
274 278 281 284 288 291 294 296 299 301 304 307 310 312 316 319 321 323 326 327 327 327 328 326 323 320 319 323 331 340 346 350 355 359 358 359 359 358 357 358 358 359 3 3 4 6 4 358 353 353 352 348 342 342 345 341 335 324 328 327 307 300 306 305 301 293 299 307 296 296 296 293 294 289 287 290 291 289 285 283 285 281 276 274 274 271 268 265
272 275 278 282 285 287 290 293 294 297 299 302 305 308 309 312 314 316 318 320 319 318 319 319 316 313 309 308 313 322 331 335 335 338 343 347 350 351 352 353 354 355 357 359 360 1 2 360 357 355 354 349 342 344 346 340 334 327 330 317 301 307 312 306 303 299 303 309 302 302 304 298 296 291 288 289 293 292 284 276 273 272 269 267 269 267 265 264
271 274 276 279 282 284 287 290 292 294 295 298 301 303 304 306 308 310 312 313 313 311 311 312 310 308 304 300 300 309 322 327 320 322 330 335 341 344 345 346 348 349 350 352 352 353 356 358 357 356 355 347 342 344 339 334 336 332 325 312 305 311 310 305 304 303 303 308 307 305 303 299 297 294 286 281 287 289 285 278 273 273 271 267 266 265 265 265
270 273 274 277 280 282 285 288 290 291 294 296 296 299 301 302 303 305 307 308 307 305 305 305 304 302 300 297 296 302 311 313 310 311 318 324 331 335 338 340 341 342 343 343 342 345 350 351 353 351 347 344 341 338 331 330 331 328 323 318 312 308 310 309 306 304 302 303 302 299 300 300 299 297 289 276 279 285 287 286 281 277 274 270 269 266 266 267
270 272 274 276 278 281 284 286 288 290 292 293 294 297 298 299 300 300 302 304 301 300 299 299 300 298 296 294 295 300 302 301 302 303 309 314 321 325 327 332 335 335 336 336 335 337 341 345 348 344 342 340 333 328 327 328 330 329 322 320 316 308 307 309 307 305 303 299 298 302 305 300 295 300 299 282 278 284 288 289 285 279 274 271 269 267 268 268
270 272 273 276 278 280 282 285 287 288 290 291 292 294 295 296 297 297 298 299 297 295 295 294 295 294 293 291 291 297 297 295 296 298 303 307 313 318 317 321 327 329 331 332 329 328 331 337 337 332 332 331 326 325 326 327 329 327 319 315 315 310 305 307 307 303 300 299 304 307 304 299 294 302 305 289 285 290 290 290 288 281 274 270 268 268 269 268
269 271 273 275 277 279 281 283 285 287 288 289 291 291 292 293 295 295 295 295 293 291 291 290 289 289 289 288 291 294 292 291 293 294 299 301 305 312 313 314 318 321 325 325 323 324 325 325 323 321 322 321 320 323 324 324 320 315 314 312 311 308 307 307 303 300 300 301 306 304 302 303 302 306 306 296 293 294 291 290 288 281 273 270 269 269 269 268
270 271 273 275 277 278 280 282 284 286 287 288 290 290 291 291 292 293 293 293 290 287 288 286 285 286 285 287 289 289 289 291 292 292 296 297 300 305 308 309 311 315 317 318 319 322 321 318 317 317 317 318 317 317 319 319 314 309 310 308 307 306 306 307 302 301 304 302 301 300 303 307 308 310 310 306 301 296 292 289 286 280 274 271 271 271 270 270
270 271 272 274 276 277 279 281 283 285 287 288 289 289 290 291 290 291 291 290 287 285 285 283 283 283 282 284 282 282 287 291 291 292 293 293 296 299 302 305 307 308 309 313 314 313 315 313 315 316 314 314 313 314 314 315 314 309 309 307 307 309 307 307 305 302 304 303 298 299 304 308 312 312 308 309 306 299 294 289 285 280 276 274 273 273 272 272
270 271 272 273 274 276 278 280 282 284 286 287 289 289 290 290 289 289 289 287 283 282 282 281 281 281 282 283 278 279 285 288 289 291 292 291 293 294 298 301 304 304 303 306 306 306 308 309 313 315 311 310 311 313 311 314 313 308 313 309 306 314 311 306 308 304 303 304 300 302 306 305 305 303 304 309 306 302 298 290 286 282 279 278 275 275 274 273
269 270 271 272 273 275 276 278 281 283 284 286 287 288 288 288 288 287 287 284 280 279 280 278 278 280 281 280 278 281 284 284 286 289 290 289 290 293 296 299 300 301 300 300 301 301 302 304 310 311 309 310 310 309 309 313 313 306 312 311 307 314 309 303 309 307 304 304 303 304 304 303 300 296 301 307 303 301 296 290 286 283 282 280 278 277 276 274
268 269 270 272 272 274 275 277 279 281 283 285 286 287 287 287 286 286 284 280 276 277 277 276 277 279 278 278 279 282 282 283 285 286 287 287 288 291 294 296 297 298 299 298 298 298 298 301 306 307 307 309 308 306 309 313 312 307 307 309 309 308 302 301 305 304 303 304 305 304 300 300 302 299 300 301 297 294 290 287 285 282 282 280 279 277 275 274
267 268 270 271 272 273 274 276 278 280 282 284 285 286 286 286 285 285 282 277 275 274 275 275 276 277 277 278 279 281 281 281 283 284 285 287 287 288 290 293 293 295 296 294 294 295 295 298 302 303 302 306 309 308 309 309 310 310 305 305 308 304 300 304 303 298 299 304 305 302 299 299 302 303 302 298 294 291 287 286 283 281 281 280 278 276 275 274
267 268 269 270 271 273 274 275 277 279 281 283 284 285 285 285 284 282 278 275 274 274 274 274 274 274 276 277 279 281 281 280 282 284 285 287 287 286 288 290 290 291 292 291 292 292 293 296 298 299 299 303 307 307 309 309 307 308 305 301 302 302 302 305 304 299 300 303 302 299 298 300 303 306 304 299 293 290 289 288 284 282 280 278 278 276 275 275
266 267 268 269 270 272 273 275 276 278 280 282 283 283 284 284 281 278 276 275 274 273 273 272 273 274 274 276 277 279 280 280 281 283 285 287 287 287 287 289 289 289 290 289 289 289 291 293 292 294 299 302 302 305 308 306 303 305 305 301 299 299 300 302 302 302 302 301 298 297 295 295 299 303 302 299 293 290 289 288 284 282 281 280 279 278 276 274
266 267 268 269 270 271 273 274 276 277 279 281 282 282 282 280 276 274 274 274 273 273 273 272 273 275 275 275 276 277 280 281 281 282 284 286 287 288 288 288 286 287 290 288 287 289 289 290 290 291 297 299 301 304 301 297 297 298 299 299 299 300 298 298 299 301 304 299 296 297 294 293 296 299 299 296 293 289 287 285 284 283 282 282 281 278 276 273
265 266 267 269 269 271 272 274 275 277 279 280 282 282 279 276 274 272 272 273 271 271 271 271 270 271 273 275 276 278 279 280 281 281 282 284 286 287 288 288 286 286 288 286 286 288 287 288 289 288 290 293 294 294 292 291 293 294 295 295 296 298 297 297 296 298 301 298 295 294 292 293 296 298 299 296 292 289 288 287 286 285 284 282 281 279 276 273
264 265 267 268 269 270 272 273 275 277 279 279 280 281 277 275 274 272 273 272 269 269 270 270 270 271 272 275 276 277 278 279 280 280 281 283 283 285 286 287 288 286 285 282 283 286 286 284 284 282 282 285 286 288 292 294 295 296 296 295 295 296 297 298 297 299 300 297 296 294 292 293 294 296 299 298 293 291 291 290 286 283 283 282 280 278 275 273
263 264 266 267 269 270 271 273 275 277 278 277 278 277 273 273 272 271 273 272 269 269 270 270 271 272 272 273 274 276 277 279 280 279 280 282 282 282 284 286 285 284 284 282 281 285 285 281 281 279 279 283 286 289 295 297 297 297 295 294 297 296 296 297 298 299 299 296 296 298 295 293 293 295 298 298 296 294 291 288 284 282 282 283 281 277 276 276
262 264 265 267 268 269 270 272 274 276 276 276 276 274 271 272 271 272 272 271 270 270 269 270 271 272 272 271 272 274 276 278 279 278 277 280 282 280 281 285 282 280 283 282 281 284 283 281 281 279 280 288 292 291 295 296 295 296 295 296 297 298 298 299 299 301 300 296 297 299 296 293 293 293 295 295 294 296 293 286 284 284 284 284 281 278 277 278
262 264 265 266 268 268 270 272 273 274 274 274 274 272 272 273 273 274 273 271 270 269 269 269 270 270 271 271 271 271 273 275 278 278 276 277 278 277 278 281 280 279 282 278 275 278 280 282 283 282 282 287 292 292 294 296 295 294 294 295 296 298 300 298 299 301 298 296 298 299 296 294 293 292 293 297 297 299 296 289 289 289 286 284 282 281 280 278
263 264 265 266 267 268 270 271 271 271 272 273 272 272 272 273 274 275 275 273 271 269 267 267 268 268 269 271 270 269 271 273 275 278 276 273 274 276 276 277 277 278 278 275 273 274 277 281 284 285 284 284 287 290 291 292 293 292 291 291 294 296 294 294 298 300 299 298 299 300 300 297 295 292 294 302 305 303 299 294 294 292 289 288 287 285 283 281
262 263 264 266 267 268 270 269 269 269 270 270 270 272 272 273 274 275 276 276 274 271 267 267 268 268 267 271 271 269 272 274 273 275 275 270 268 274 278 276 276 277 277 276 275 275 279 281 281 283 286 284 284 287 288 288 291 294 291 288 289 292 293 294 300 302 301 301 299 304 306 300 297 294 296 303 305 304 302 298 297 295 292 290 288 287 286 284
261 262 264 265 266 268 268 266 267 268 269 269 269 271 272 272 274 275 276 277 275 272 269 267 268 267 267 270 271 269 272 275 273 272 273 269 267 273 277 277 279 279 276 277 275 276 281 285 283 282 283 283 283 286 288 287 291 293 292 289 289 292 294 295 298 299 298 297 297 302 303 296 294 294 297 302 303 302 301 299 299 298 296 293 290 289 288 287
261 262 263 264 265 267 265 264 266 267 267 267 268 270 271 272 273 275 278 278 275 272 269 268 268 268 267 269 268 267 270 273 274 273 272 270 270 273 275 276 279 279 276 276 275 277 281 285 286 284 283 283 283 286 287 287 291 291 291 292 292 293 292 291 295 295 294 296 296 296 296 293 292 294 299 303 302 302 301 298 300 298 296 296 293 291 290 289
261 261 262 263 264 265 263 263 265 265 265 266 267 268 270 270 271 275 275 274 274 273 270 268 268 269 270 269 266 267 270 273 274 273 272 271 272 274 275 275 275 275 276 273 273 279 282 280 279 280 283 282 282 286 284 284 289 289 289 291 292 292 291 290 292 292 295 298 294 294 294 292 291 294 302 306 302 302 300 298 299 299 299 297 293 292 292 291
261 261 262 262 263 264 263 263 263 263 264 265 266 267 268 268 270 272 270 268 271 273 272 270 269 271 272 270 268 270 273 275 274 274 274 273 272 275 275 274 274 274 276 274 274 279 281 278 277 277 280 281 283 286 285 285 288 289 289 292 294 295 294 293 292 292 296 295 291 291 289 289 291 293 300 304 301 300 300 299 300 302 303 300 295 295 295 294
262 262 262 261 262 263 263 263 262 262 263 263 263 264 265 267 267 267 264 265 269 272 272 272 271 271 272 271 271 273 273 274 275 275 275 274 274 277 276 275 278 276 278 280 278 279 281 280 279 279 280 281 283 287 288 288 289 288 290 293 295 295 294 294 292 294 295 291 290 290 283 283 291 295 296 298 299 299 298 299 302 305 305 300 299 299 297 294
262 261 261 261 262 261 262 262 261 261 262 261 261 262 263 266 265 260 260 265 270 271 271 272 274 273 271 270 272 273 273 274 274 273 274 275 275 276 275 276 278 278 279 279 279 281 282 280 279 280 280 281 285 287 289 289 288 288 290 292 294 294 295 296 294 294 291 289 293 294 286 281 284 291 295 295 297 298 297 299 301 303 303 301 302 302 299 295
261 260 260 261 261 261 260 261 260 260 260 259 259 260 261 264 261 256 260 268 271 270 269 271 273 272 272 272 272 271 271 273 273 273 273 274 273 272 273 274 274 277 278 277 280 284 281 278 279 281 280 280 283 286 287 289 288 286 287 290 292 294 297 294 292 291 287 288 293 292 290 285 282 287 292 291 293 295 296 298 299 301 304 305 306 304 300 296
261 260 260 260 260 261 260 259 259 258 258 257 257 260 260 260 259 256 259 264 267 270 272 273 274 272 271 272 271 270 271 273 273 274 274 274 272 272 274 274 272 274 277 278 282 284 283 283 281 280 281 279 277 279 282 285 285 282 282 284 285 290 292 289 289 291 289 291 292 288 289 289 289 293 290 286 289 292 295 297 297 302 306 306 307 305 301 296
260 259 259 260 260 259 259 258 257 256 257 255 256 259 257 256 259 259 258 261 265 271 272 272 273 273 271 270 270 270 271 273 272 272 273 273 272 273 273 273 272 274 277 278 279 280 281 283 279 277 281 278 275 279 281 282 283 281 282 282 281 282 283 283 286 287 291 295 292 287 287 289 293 297 291 289 292 295 299 300 300 304 306 307 308 305 300 295
260 259 260 260 259 258 257 257 255 255 255 254 255 255 253 254 259 261 261 263 265 268 270 271 271 271 270 271 272 271 271 273 274 273 272 271 272 273 273 272 271 272 274 274 277 278 278 279 279 281 282 279 278 282 283 282 280 281 282 281 280 280 278 281 283 284 291 296 290 285 284 286 291 293 293 296 298 299 302 302 303 307 307 307 305 301 298 295
260 261 260 260 259 258 256 255 254 254 254 254 254 254 254 257 260 262 263 264 264 265 267 270 270 268 270 271 272 272 272 273 274 273 272 273 274 273 274 275 271 269 270 272 276 277 277 280 282 284 284 282 281 281 281 279 278 279 279 277 280 280 279 281 285 289 292 289 287 286 286 289 293 292 294 299 299 298 300 301 304 307 307 305 301 298 297 295
260 261 260 259 259 258 255 253 253 254 255 254 254 255 258 260 260 261 264 264 264 265 265 267 267 267 268 271 271 271 272 273 272 272 272 274 275 273 273 276 273 267 268 272 274 274 275 278 280 280 281 282 283 282 281 279 277 277 278 278 280 282 282 282 286 291 290 284 286 288 287 290 292 292 297 299 298 297 297 299 304 306 304 301 298 298 297 295
260 261 260 259 258 257 254 252 251 253 255 255 255 257 260 261 260 261 263 263 265 265 264 264 266 267 268 270 271 271 270 270 270 271 272 273 275 274 273 275 274 269 268 270 273 274 274 276 279 279 280 282 283 279 277 279 278 275 276 279 280 280 282 282 282 286 285 283 287 289 289 289 286 288 294 295 294 295 295 298 303 303 300 297 296 297 296 294
260 261 261 259 257 255 252 251 251 253 254 253 255 258 260 262 263 261 259 261 265 264 263 264 266 268 268 268 270 271 269 269 269 270 272 272 274 274 273 274 275 274 272 269 270 274 273 273 277 280 280 281 280 275 272 275 276 275 276 279 280 279 280 279 279 281 282 283 286 289 291 289 285 288 292 292 292 292 293 297 300 300 297 294 295 297 294 292
260 262 262 259 256 252 250 251 252 253 254 255 257 260 262 262 263 261 257 259 264 264 263 265 265 266 267 268 270 271 270 270 270 270 271 271 273 275 273 274 277 279 278 273 272 274 272 271 274 279 280 277 274 274 273 271 271 272 272 275 277 279 280 281 280 279 279 282 284 286 287 287 287 290 293 293 292 290 292 297 299 299 295 292 294 295 292 291
258 261 262 259 254 250 249 252 255 256 257 258 258 260 261 262 262 262 260 260 262 264 263 264 263 264 267 268 270 271 270 270 269 269 271 270 272 274 274 274 277 279 279 276 273 271 270 270 271 273 275 274 275 278 276 272 271 271 271 273 274 274 276 280 281 278 276 277 279 281 283 285 287 291 293 293 292 291 292 296 299 298 293 292 293 293 291 291
256 260 262 257 252 248 249 255 258 258 257 257 258 260 261 262 263 262 262 261 262 263 264 264 264 265 267 268 269 269 268 269 268 268 270 270 269 273 275 274 274 274 275 275 275 274 273 271 270 271 273 275 276 277 275 274 275 274 275 276 275 273 271 273 277 278 276 275 278 281 282 285 288 291 292 292 291 291 292 295 298 295 292 292 293 292 291 290
256 260 262 257 251 247 250 258 259 257 259 259 260 261 261 262 263 262 261 261 261 262 262 264 265 265 267 267 267 267 267 268 268 267 270 271 271 273 274 271 270 272 274 275 277 276 272 269 270 273 277 277 277 277 275 275 276 274 274 274 272 271 271 271 274 277 277 275 276 279 280 283 289 293 292 293 294 294 295 295 294 292 292 293 292 291 290 289
257 259 260 256 251 248 251 257 257 256 259 260 259 259 260 261 262 261 261 261 261 262 263 264 265 265 266 266 266 266 266 266 268 268 269 271 273 274 271 266 266 270 272 272 273 271 268 268 270 274 278 277 277 277 276 274 273 273 274 273 270 270 271 274 275 275 276 274 272 275 277 282 290 294 293 294 295 296 296 294 292 291 292 292 291 291 290 289
257 258 257 254 251 250 254 259 259 257 257 257 258 258 259 261 261 260 261 262 262 263 263 264 265 265 266 267 266 266 265 266 268 270 270 271 275 276 270 264 263 267 270 270 268 267 268 268 266 266 269 271 271 273 274 274 273 273 272 271 269 268 267 270 273 272 273 273 271 271 276 283 289 290 291 294 295 295 296 294 292 292 291 290 290 290 289 288
255 256 256 254 252 253 256 259 260 259 257 256 257 258 257 260 262 262 261 261 261 262 263 264 265 266 266 265 265 266 266 267 269 270 271 271 274 276 272 267 265 267 271 271 266 264 268 268 264 262 264 265 268 271 274 275 273 271 270 269 269 268 266 267 270 269 271 274 272 271 276 283 287 287 290 293 294 294 294 293 293 292 289 289 290 289 288 287
253 254 254 254 254 255 256 257 257 258 258 255 256 257 256 258 261 261 258 259 260 260 262 265 264 264 265 264 265 267 267 267 268 268 269 270 272 275 274 272 271 271 274 273 266 264 267 266 264 264 265 266 269 271 272 272 271 269 269 270 269 269 267 265 265 267 271 274 274 275 278 281 283 286 290 292 293 293 292 293 293 290 288 288 289 288 287 287
252 254 253 252 254 255 255 255 255 256 256 254 255 257 256 256 257 259 258 259 259 258 260 263 262 262 263 264 265 266 266 267 267 266 268 270 271 272 273 273 273 272 273 272 269 266 265 265 265 266 267 268 270 271 270 270 271 270 270 269 269 268 265 263 265 268 270 270 273 277 279 278 281 287 290 290 291 291 291 293 292 289 288 288 288 287 286 286
252 255 253 251 253 254 254 254 255 255 255 255 256 256 256 256 256 258 259 260 259 258 257 261 262 262 263 263 263 264 264 265 266 268 269 270 269 269 270 270 271 271 270 270 270 267 265 266 266 267 269 270 269 270 269 269 270 271 270 269 269 267 265 265 267 270 270 269 272 277 278 278 282 287 288 289 290 291 292 293 291 289 288 287 286 286 285 284
251 253 253 253 254 255 254 254 254 254 254 254 254 255 256 257 257 258 259 257 258 260 258 259 262 263 262 261 261 262 263 265 267 269 270 269 268 268 268 268 269 270 268 266 268 266 265 267 269 270 271 270 269 270 269 267 269 270 270 270 269 268 268 268 270 271 271 271 273 276 277 279 284 288 288 289 291 291 290 290 289 288 287 286 285 284 283 282
251 253 253 254 256 254 254 254 253 254 254 253 253 255 256 256 256 258 259 258 257 259 259 259 262 264 263 261 260 262 265 266 268 269 269 267 267 267 267 267 267 267 266 265 265 265 265 268 270 270 270 270 270 271 269 268 270 270 269 270 269 268 269 270 271 271 271 272 274 275 276 280 286 290 289 289 290 288 288 288 288 288 286 284 282 282 281 280
252 254 252 253 255 254 253 254 253 252 253 253 253 255 255 256 257 258 259 259 257 257 258 258 261 263 263 261 261 264 267 267 267 268 267 266 266 266 267 267 265 264 264 264 266 267 267 267 268 267 268 270 271 270 270 270 271 270 269 271 271 269 270 271 272 272 271 272 273 274 276 281 287 289 289 288 288 286 286 287 288 287 286 283 280 280 280 279